New Roads False River Regiona, LA

7:36 PM CST on November 13, 2019 (GMT -0600)
False River

Weather History for KHZR - October, 2019

Change the Weather History Date:

Wednesday, October 23, 2019

  Actual Average (WUND) Record (WUND)
Temperature  
Mean Temperature 58 °F -  
Max Temperature 73 °F - - (-1)
Min Temperature 44 °F - - (-1)
Degree Days  
Heating Degree Days 6    
Growing Degree Days 8 (Base 50)    
Moisture  
Dew Point 46 °F    
Average Humidity 71    
Maximum Humidity 100    
Minimum Humidity 31    
Precipitation  
Precipitation 0.00 in - - ()
Sea Level Pressure  
Sea Level Pressure 30.16 in    
Wind  
Wind Speed 2 mph ()    
Max Wind Speed 9 mph    
Max Gust Speed -    
Visibility 9.9 miles    
Events      
Averages and records for this station are not official NWS values.
T = Trace of Precipitation, MM = Missing Value Source: Averaged Metar Reports

Daily Weather History Graph

Daily Weather History Graph

Search for Another Location

Airport or City:

Astronomy

Oct. 23, 2019 Rise Set
Actual Time 7:13 AM CDT 6:26 PM CDT
Civil Twilight 6:49 AM CDT 6:50 PM CDT
Nautical Twilight 6:21 AM CDT 7:18 PM CDT
Astronomical Twilight 5:53 AM CDT 7:46 PM CDT
Moon 2:02 AM CDT (10/23) 3:50 PM CDT (10/23)
Length of Visible Light 12h 01m
Length of Day
11h 12m
Waning Crescent, 26% of the Moon is Illuminated
Oct 23
Waning Crescent
Oct 27
New
Nov 4
First Quarter
Nov 12
Full
Nov 19
Last Quarter

Hourly Weather History & Observations

Time (CDT) Temp. Dew Point Humidity Pressure Visibility Wind Dir Wind Speed Gust Speed Precip Events Conditions
12:16 AM 50.0 °F 48.2 °F 94% 30.17 in 10.0 mi Calm Calm - N/A   Clear
12:35 AM 50.0 °F 48.2 °F 94% 30.17 in 10.0 mi Calm Calm - N/A   Clear
12:55 AM 48.2 °F 48.2 °F 100% 30.16 in 10.0 mi Calm Calm - N/A   Clear
1:16 AM 48.2 °F 48.2 °F 100% 30.17 in 10.0 mi Calm Calm - N/A   Clear
1:35 AM 48.2 °F 48.2 °F 100% 30.17 in 10.0 mi Calm Calm - N/A   Clear
2:35 AM 48.2 °F 48.2 °F 100% 30.17 in 10.0 mi Calm Calm - N/A   Clear
2:57 AM 46.4 °F 46.4 °F 100% 30.16 in 10.0 mi Calm Calm - N/A   Clear
3:35 AM 46.4 °F 46.4 °F 100% 30.16 in 10.0 mi Calm Calm - N/A   Clear
3:58 AM 46.4 °F 46.4 °F 100% 30.16 in 10.0 mi Calm Calm - N/A   Clear
4:17 AM 46.4 °F 46.4 °F 100% 30.17 in 10.0 mi Calm Calm - N/A   Clear
4:36 AM 46.4 °F 46.4 °F 100% 30.17 in 10.0 mi Calm Calm - N/A   Clear
4:57 AM 46.4 °F 46.4 °F 100% 30.18 in 10.0 mi Calm Calm - N/A   Clear
5:17 AM 46.4 °F 46.4 °F 100% 30.18 in 10.0 mi Calm Calm - N/A   Clear
5:37 AM 46.4 °F 46.4 °F 100% 30.18 in 10.0 mi Calm Calm - N/A   Clear
6:17 AM 46.4 °F 46.4 °F 100% 30.18 in 10.0 mi Calm Calm - N/A   Clear
6:35 AM 46.4 °F 44.6 °F 93% 30.18 in 10.0 mi Calm Calm - N/A   Clear
7:15 AM 44.6 °F 44.6 °F 100% 30.18 in 5.0 mi Calm Calm - N/A   Clear
7:35 AM 44.6 °F 44.6 °F 100% 30.18 in 10.0 mi Calm Calm - N/A   Clear
7:55 AM 46.4 °F 46.4 °F 100% 30.18 in 10.0 mi Calm Calm - N/A   Clear
8:36 AM 53.6 °F 48.2 °F 82% 30.20 in 10.0 mi Calm Calm - N/A   Clear
8:57 AM 55.4 °F 48.2 °F 77% 30.20 in 10.0 mi Calm Calm - N/A   Clear
9:15 AM 57.2 °F 46.4 °F 67% 30.21 in 10.0 mi East 3.5 mph - N/A   Clear
9:35 AM 60.8 °F 48.2 °F 63% 30.21 in 10.0 mi Calm Calm - N/A   Clear
9:55 AM 62.6 °F 48.2 °F 59% 30.22 in 10.0 mi Calm Calm - N/A   Clear
10:15 AM 64.4 °F 46.4 °F 52% 30.21 in 10.0 mi ESE 5.8 mph - N/A   Clear
10:36 AM 66.2 °F 44.6 °F 46% 30.21 in 10.0 mi ESE 8.1 mph - N/A   Clear
11:16 AM 68.0 °F 39.2 °F 35% 30.21 in 10.0 mi ESE 8.1 mph - N/A   Clear
11:36 AM 69.8 °F 42.8 °F 38% 30.20 in 10.0 mi SE 8.1 mph - N/A   Clear
11:55 AM 69.8 °F 42.8 °F 38% 30.20 in 10.0 mi East 9.2 mph - N/A   Clear
12:15 PM 69.8 °F 39.2 °F 33% 30.19 in 10.0 mi East 9.2 mph - N/A   Clear
12:36 PM 71.6 °F 39.2 °F 31% 30.18 in 10.0 mi East 8.1 mph - N/A   Clear
12:56 PM 71.6 °F 41.0 °F 33% 30.18 in 10.0 mi East 6.9 mph - N/A   Clear
1:15 PM 71.6 °F 41.0 °F 33% 30.17 in 10.0 mi East 3.5 mph - N/A   Clear
1:35 PM 71.6 °F 41.0 °F 33% 30.16 in 10.0 mi East 5.8 mph - N/A   Clear
2:16 PM 73.4 °F 41.0 °F 31% 30.14 in 10.0 mi SE 8.1 mph - N/A   Clear
2:55 PM 73.4 °F 42.8 °F 33% 30.12 in 10.0 mi SE 4.6 mph - N/A   Clear
3:16 PM 73.4 °F 42.8 °F 33% 30.12 in 10.0 mi South 3.5 mph - N/A   Clear
3:35 PM 73.4 °F 42.8 °F 33% 30.12 in 10.0 mi ESE 5.8 mph - N/A   Clear
3:56 PM 73.4 °F 42.8 °F 33% 30.11 in 10.0 mi SE 6.9 mph - N/A   Clear
4:16 PM 73.4 °F 42.8 °F 33% 30.11 in 10.0 mi East 4.6 mph - N/A   Clear
4:55 PM 71.6 °F 42.8 °F 35% 30.10 in 10.0 mi SE 3.5 mph - N/A   Clear
5:36 PM 71.6 °F 44.6 °F 38% 30.10 in 10.0 mi ESE 4.6 mph - N/A   Clear
5:55 PM 69.8 °F 44.6 °F 40% 30.10 in 10.0 mi ESE 3.5 mph - N/A   Clear
6:15 PM 66.2 °F 48.2 °F 52% 30.10 in 10.0 mi Calm Calm - N/A   Clear
6:37 PM 62.6 °F 51.8 °F 68% 30.10 in 10.0 mi Calm Calm - N/A   Clear
7:15 PM 60.8 °F 51.8 °F 72% 30.12 in 10.0 mi SSE 3.5 mph - N/A   Clear
7:55 PM 57.2 °F 51.8 °F 82% 30.13 in 10.0 mi Calm Calm - N/A   Clear
8:16 PM 55.4 °F 53.6 °F 94% 30.13 in 10.0 mi Calm Calm - N/A   Clear
8:56 PM 55.4 °F 51.8 °F 88% 30.13 in 10.0 mi Calm Calm - N/A   Clear
9:55 PM 51.8 °F 48.2 °F 88% 30.14 in 10.0 mi Calm Calm - N/A   Clear
10:35 PM 51.8 °F 50.0 °F 94% 30.14 in 10.0 mi Calm Calm - N/A   Clear
11:16 PM 51.8 °F 50.0 °F 94% 30.14 in 10.0 mi Calm Calm - N/A   Clear
11:35 PM 51.8 °F 48.2 °F 88% 30.13 in 10.0 mi Calm Calm - N/A   Clear
11:57 PM 51.8 °F 48.2 °F 88% 30.12 in 10.0 mi Calm Calm - N/A   Clear